| time (UTC) | temp F | wind direction | speed MPH | gust MPH | rain 1hr in | rain 24hr in | rain mn in | humidity % | barometer mb |
| 20260904123803 | 89 | 280 | 0.0 | 5.0 | 0.00 | 0.00 | 0.00 | 45 | 1015.6 |
| 20260904123304 | 88 | 277 | 1.0 | 8.0 | 0.00 | 0.00 | 0.00 | 45 | 1016.2 |
| 20260904122306 | 88 | 262 | 1.0 | 5.0 | 0.00 | 0.00 | 0.00 | 46 | 1016.2 |
| 20260904121803 | 88 | 188 | 0.0 | 3.0 | 0.00 | 0.00 | 0.00 | 46 | 1016.2 |
| 20260904120804 | 88 | 308 | 0.0 | 5.0 | 0.00 | 0.00 | 0.00 | 47 | 1016.2 |
| 20260904115804 | 88 | 337 | 0.0 | 8.0 | 0.00 | 0.00 | 0.00 | 46 | 1017.1 |
| 20260904115306 | 88 | 269 | 1.0 | 6.0 | 0.00 | 0.00 | 0.00 | 48 | 1017.1 |
| 20260904114804 | 88 | 303 | 1.0 | 6.0 | 0.00 | 0.00 | 0.00 | 47 | 1017.1 |
| 20260904114304 | 88 | 287 | 1.0 | 7.0 | 0.00 | 0.00 | 0.00 | 47 | 1017.1 |
| 20260904113804 | 88 | 321 | 1.0 | 5.0 | 0.00 | 0.00 | 0.00 | 48 | 1017.1 |
| 20260904113304 | 87 | 343 | 1.0 | 5.0 | 0.00 | 0.00 | 0.00 | 48 | 1017.1 |
| 20260904112803 | 88 | 291 | 0.0 | 5.0 | 0.00 | 0.00 | 0.00 | 48 | 1017.1 |
| 20260904112306 | 87 | 2 | 1.0 | 8.0 | 0.00 | 0.00 | 0.00 | 49 | 1017.1 |
| 20260904111804 | 87 | 279 | 1.0 | 5.0 | 0.00 | 0.00 | 0.00 | 48 | 1017.1 |
| 20260904111303 | 87 | 311 | 1.0 | 10.0 | 0.00 | 0.00 | 0.00 | 49 | 1017.1 |
| 20260904110803 | 86 | 28 | 0.0 | 2.0 | 0.00 | 0.00 | 0.00 | 50 | 1017.1 |
| 20260904110304 | 86 | 358 | 1.0 | 9.0 | 0.00 | 0.00 | 0.00 | 49 | 1017.1 |
| 20260904105804 | 86 | 256 | 0.0 | 5.0 | 0.00 | 0.00 | 0.00 | 49 | 1017.1 |
| 20260904104303 | 87 | 304 | 1.0 | 5.0 | 0.00 | 0.00 | 0.00 | 50 | 1017.5 |
| 20260904103804 | 86 | 313 | 1.0 | 5.0 | 0.00 | 0.00 | 0.00 | 49 | 1017.5 |
| 20260904103303 | 86 | 277 | 0.0 | 2.0 | 0.00 | 0.00 | 0.00 | 51 | 1018.3 |
| 20260904102803 | 86 | 301 | 0.0 | 5.0 | 0.00 | 0.00 | 0.00 | 51 | 1018.3 |
| 20260904102306 | 86 | 108 | 0.0 | 3.0 | 0.00 | 0.00 | 0.00 | 52 | 1018.3 |
| 20260904101803 | 86 | 298 | 0.0 | 2.0 | 0.00 | 0.00 | 0.00 | 50 | 1018.3 |
| 20260904101304 | 85 | 259 | 0.0 | 6.0 | 0.00 | 0.00 | 0.00 | 52 | 1018.3 |
| 20260904100804 | 85 | 242 | 0.0 | 7.0 | 0.00 | 0.00 | 0.00 | 52 | 1018.3 |
| 20260904100304 | 85 | 264 | 0.0 | 2.0 | 0.00 | 0.00 | 0.00 | 52 | 1018.3 |
| 20260904095803 | 84 | 245 | 1.0 | 6.0 | 0.00 | 0.00 | 0.00 | 53 | 1018.3 |
| 20260904095306 | 84 | 347 | 1.0 | 2.0 | 0.00 | 0.00 | 0.00 | 54 | 1018.3 |
| 20260904094804 | 83 | 229 | 2.0 | 8.0 | 0.00 | 0.00 | 0.00 | 54 | 1018.3 |
| 20260904094303 | 83 | 331 | 2.0 | 8.0 | 0.00 | 0.00 | 0.00 | 54 | 1018.3 |
| 20260904093804 | 82 | 320 | 1.0 | 7.0 | 0.00 | 0.00 | 0.00 | 56 | 1018.9 |
| 20260904093303 | 82 | 301 | 2.0 | 6.0 | 0.00 | 0.00 | 0.00 | 55 | 1018.9 |
| 20260904092803 | 82 | 266 | 2.0 | 8.0 | 0.00 | 0.00 | 0.00 | 57 | 1018.9 |
| 20260904092306 | 81 | 293 | 1.0 | 6.0 | 0.00 | 0.00 | 0.00 | 59 | 1018.9 |
| 20260904091803 | 81 | 351 | 1.0 | 3.0 | 0.00 | 0.00 | 0.00 | 60 | 1018.9 |
| 20260904091304 | 80 | 69 | 0.0 | 5.0 | 0.00 | 0.00 | 0.00 | 61 | 1018.9 |
| 20260904090303 | 79 | 351 | 0.0 | 3.0 | 0.00 | 0.00 | 0.00 | 62 | 1018.9 |
| 20260904085804 | 79 | 314 | 1.0 | 5.0 | 0.00 | 0.00 | 0.00 | 61 | 1018.9 |
| 20260904085306 | 79 | 287 | 0.0 | 5.0 | 0.00 | 0.00 | 0.00 | 62 | 1018.9 |
| 20260904084803 | 79 | 325 | 0.0 | 6.0 | 0.00 | 0.00 | 0.00 | 62 | 1018.9 |
| 20260904084304 | 78 | 296 | 0.0 | 5.0 | 0.00 | 0.00 | 0.00 | 63 | 1018.9 |
| 20260904083804 | 77 | 260 | 0.0 | 1.0 | 0.00 | 0.00 | 0.00 | 64 | 1019.6 |
| 20260904082803 | 76 | 160 | 0.0 | 0.0 | 0.00 | 0.00 | 0.00 | 65 | 1019.6 |
| 20260904082305 | 75 | 160 | 0.0 | 0.0 | 0.00 | 0.00 | 0.00 | 65 | 1019.6 |
| 20260904081804 | 75 | 63 | 0.0 | 0.0 | 0.00 | 0.00 | 0.00 | 67 | 1019.6 |
| 20260904080804 | 74 | 173 | 0.0 | 1.0 | 0.00 | 0.00 | 0.00 | 67 | 1019.6 |
| 20260904075306 | 72 | 78 | 0.0 | 1.0 | 0.00 | 0.00 | 0.00 | 69 | 1019.6 |
| 20260904074803 | 72 | 163 | 0.0 | 1.0 | 0.00 | 0.00 | 0.00 | 70 | 1019.6 |
| 20260904074303 | 71 | 91 | 0.0 | 0.0 | 0.00 | 0.00 | 0.00 | 70 | 1019.7 |
| 20260904073804 | 71 | 54 | 0.0 | 1.0 | 0.00 | 0.00 | 0.00 | 72 | 1019.7 |
| 20260904073303 | 70 | 91 | 0.0 | 1.0 | 0.00 | 0.00 | 0.00 | 73 | 1019.7 |
| 20260904072804 | 70 | 107 | 0.0 | 0.0 | 0.00 | 0.00 | 0.00 | 74 | 1019.7 |
| 20260904072306 | 69 | 96 | 0.0 | 0.0 | 0.00 | 0.00 | 0.00 | 74 | 1020.1 |
| 20260904071804 | 69 | 98 | 0.0 | 0.0 | 0.00 | 0.00 | 0.00 | 74 | 1020.1 |
| 20260904070303 | 68 | 80 | 0.0 | 0.0 | 0.00 | 0.00 | 0.00 | 76 | 1020.1 |
| 20260904065803 | 67 | 80 | 0.0 | 0.0 | 0.00 | 0.00 | 0.00 | 78 | 1020.1 |
| 20260904064803 | 66 | 67 | 0.0 | 0.0 | 0.00 | 0.00 | 0.00 | 80 | 1020.1 |
| 20260904064304 | 65 | 84 | 0.0 | 0.0 | 0.00 | 0.00 | 0.00 | 80 | 1020.1 |
| 20260904063804 | 65 | 189 | 0.0 | 0.0 | 0.00 | 0.00 | 0.00 | 82 | 1020.1 |
| 20260904063304 | 64 | 189 | 0.0 | 0.0 | 0.00 | 0.00 | 0.00 | 82 | 1020.1 |
| 20260904062803 | 64 | 189 | 0.0 | 0.0 | 0.00 | 0.00 | 0.00 | 83 | 1020.2 |
| 20260904062306 | 64 | 158 | 0.0 | 1.0 | 0.00 | 0.00 | 0.00 | 83 | 1020.3 |
| 20260904061803 | 63 | 156 | 0.0 | 0.0 | 0.00 | 0.00 | 0.00 | 85 | 1020.3 |
| 20260904060804 | 62 | 156 | 0.0 | 0.0 | 0.00 | 0.00 | 0.00 | 87 | 1020.3 |
| 20260904055804 | 61 | 156 | 0.0 | 0.0 | 0.00 | 0.00 | 0.00 | 88 | 1020.3 |
| 20260904054803 | 60 | 156 | 0.0 | 0.0 | 0.00 | 0.00 | 0.00 | 89 | 1020.3 |
| 20260904054303 | 60 | 156 | 0.0 | 0.0 | 0.00 | 0.00 | 0.00 | 89 | 1020.3 |
| 20260904053804 | 59 | 156 | 0.0 | 0.0 | 0.00 | 0.00 | 0.00 | 91 | 1020.3 |
| 20260904053303 | 59 | 156 | 0.0 | 0.0 | 0.00 | 0.00 | 0.00 | 91 | 1020.3 |
| 20260904052804 | 59 | 156 | 0.0 | 0.0 | 0.00 | 0.00 | 0.00 | 91 | 1020.2 |
| 20260904052306 | 59 | 156 | 0.0 | 0.0 | 0.00 | 0.00 | 0.00 | 92 | 1020.2 |
| 20260904051804 | 59 | 156 | 0.0 | 0.0 | 0.00 | 0.00 | 0.00 | 93 | 1020.2 |
| 20260904051304 | 59 | 156 | 0.0 | 0.0 | 0.00 | 0.00 | 0.00 | 92 | 1020.2 |
| 20260904050804 | 59 | 156 | 0.0 | 0.0 | 0.00 | 0.00 | 0.00 | 92 | 1020.2 |
| 20260904050303 | 59 | 156 | 0.0 | 0.0 | 0.00 | 0.00 | 0.00 | 92 | 1020.2 |
| 20260904045803 | 59 | 156 | 0.0 | 0.0 | 0.00 | 0.00 | 0.00 | 92 | 1020.2 |
| 20260904045306 | 59 | 156 | 0.0 | 0.0 | 0.00 | 0.00 | 0.00 | 91 | 1020.2 |
| 20260904044804 | 59 | 156 | 0.0 | 0.0 | 0.00 | 0.00 | 0.00 | 92 | 1020.2 |
| 20260904043303 | 59 | 156 | 0.0 | 0.0 | 0.00 | 0.00 | 0.00 | 91 | 1020.2 |
| 20260904042803 | 59 | 156 | 0.0 | 0.0 | 0.00 | 0.00 | 0.00 | 91 | 1020.8 |
| 20260904042306 | 59 | 156 | 0.0 | 0.0 | 0.00 | 0.00 | 0.00 | 91 | 1020.8 |
| 20260904041803 | 59 | 156 | 0.0 | 0.0 | 0.00 | 0.00 | 0.00 | 90 | 1020.8 |
| 20260904041304 | 60 | 156 | 0.0 | 0.0 | 0.00 | 0.00 | 0.00 | 89 | 1020.8 |
| 20260904040804 | 60 | 156 | 0.0 | 0.0 | 0.00 | 0.00 | 0.00 | 88 | 1020.8 |
| 20260904040303 | 61 | 156 | 0.0 | 0.0 | 0.00 | 0.00 | 0.00 | 87 | 1020.8 |
| 20260904035803 | 61 | 156 | 0.0 | 0.0 | 0.00 | 0.00 | 0.00 | 86 | 1020.8 |
| 20260904035306 | 61 | 156 | 0.0 | 0.0 | 0.00 | 0.00 | 0.00 | 86 | 1020.8 |
| 20260904034803 | 61 | 156 | 0.0 | 0.0 | 0.00 | 0.00 | 0.00 | 86 | 1020.8 |
| 20260904034304 | 61 | 156 | 0.0 | 0.0 | 0.00 | 0.00 | 0.00 | 87 | 1020.8 |
| 20260904033803 | 61 | 156 | 0.0 | 0.0 | 0.00 | 0.00 | 0.00 | 87 | 1020.8 |
| 20260904033303 | 61 | 156 | 0.0 | 0.0 | 0.00 | 0.00 | 0.00 | 86 | 1020.8 |
| 20260904032803 | 61 | 156 | 0.0 | 0.0 | 0.00 | 0.00 | 0.00 | 86 | 1020.8 |
| 20260904032305 | 61 | 156 | 0.0 | 0.0 | 0.00 | 0.00 | 0.00 | 86 | 1020.9 |
| 20260904031303 | 61 | 170 | 0.0 | 0.0 | 0.00 | 0.00 | 0.00 | 87 | 1020.9 |
| 20260904030804 | 61 | 171 | 0.0 | 0.0 | 0.00 | 0.00 | 0.00 | 87 | 1021.2 |
| 20260904030304 | 61 | 200 | 0.0 | 0.0 | 0.00 | 0.00 | 0.00 | 86 | 1021.2 |
| 20260904025803 | 61 | 200 | 0.0 | 0.0 | 0.00 | 0.00 | 0.00 | 86 | 1021.2 |
| 20260904025306 | 61 | 227 | 0.0 | 0.0 | 0.00 | 0.00 | 0.00 | 87 | 1021.2 |
| 20260904024803 | 61 | 227 | 0.0 | 0.0 | 0.00 | 0.00 | 0.00 | 87 | 1021.2 |
| 20260904024303 | 61 | 227 | 0.0 | 0.0 | 0.00 | 0.00 | 0.00 | 88 | 1021.2 |
| 20260904023304 | 61 | 227 | 0.0 | 0.0 | 0.00 | 0.00 | 0.00 | 88 | 1021.3 |
| 20260904022804 | 60 | 227 | 0.0 | 0.0 | 0.00 | 0.00 | 0.00 | 90 | 1021.3 |
| 20260904022306 | 60 | 227 | 0.0 | 0.0 | 0.00 | 0.00 | 0.00 | 90 | 1021.3 |
| 20260904021804 | 60 | 227 | 0.0 | 0.0 | 0.00 | 0.00 | 0.00 | 91 | 1021.3 |
| 20260904021304 | 60 | 227 | 0.0 | 0.0 | 0.00 | 0.00 | 0.00 | 90 | 1021.3 |
| 20260904020804 | 60 | 227 | 0.0 | 0.0 | 0.00 | 0.00 | 0.00 | 90 | 1021.3 |
| 20260904020303 | 60 | 227 | 0.0 | 0.0 | 0.00 | 0.00 | 0.00 | 90 | 1021.3 |
| 20260904015804 | 60 | 227 | 0.0 | 0.0 | 0.00 | 0.00 | 0.00 | 90 | 1021.3 |
| 20260904015306 | 60 | 227 | 0.0 | 0.0 | 0.00 | 0.00 | 0.00 | 89 | 1021.3 |
| 20260904014803 | 60 | 227 | 0.0 | 0.0 | 0.00 | 0.00 | 0.00 | 89 | 1021.3 |
| 20260904014304 | 60 | 227 | 0.0 | 0.0 | 0.00 | 0.00 | 0.00 | 88 | 1021.3 |
| 20260904013804 | 60 | 227 | 0.0 | 0.0 | 0.00 | 0.00 | 0.00 | 88 | 1021.3 |
| 20260904013304 | 61 | 227 | 0.0 | 0.0 | 0.00 | 0.00 | 0.00 | 88 | 1021.3 |
| 20260904011803 | 60 | 263 | 0.0 | 0.0 | 0.00 | 0.00 | 0.00 | 90 | 1021.3 |
| 20260904010804 | 61 | 263 | 0.0 | 0.0 | 0.00 | 0.00 | 0.00 | 89 | 1021.3 |
| 20260904010304 | 61 | 263 | 0.0 | 0.0 | 0.00 | 0.00 | 0.00 | 88 | 1021.3 |
| 20260904005803 | 61 | 263 | 0.0 | 0.0 | 0.00 | 0.00 | 0.00 | 87 | 1021.6 |
| 20260904005306 | 61 | 263 | 0.0 | 0.0 | 0.00 | 0.00 | 0.00 | 87 | 1021.6 |
| 20260904004804 | 61 | 263 | 0.0 | 0.0 | 0.00 | 0.00 | 0.00 | 88 | 1021.6 |
| 20260904004303 | 61 | 263 | 0.0 | 0.0 | 0.00 | 0.00 | 0.00 | 88 | 1021.6 |
| 20260904002804 | 61 | 263 | 0.0 | 0.0 | 0.00 | 0.00 | 0.00 | 88 | 1021.6 |
| 20260904001804 | 61 | 263 | 0.0 | 0.0 | 0.00 | 0.00 | 0.00 | 89 | 1021.8 |
| 20260904000803 | 61 | 263 | 0.0 | 0.0 | 0.00 | 0.00 | 0.00 | 88 | 1021.8 |
| 20260904000304 | 61 | 263 | 0.0 | 0.0 | 0.00 | 0.00 | 0.00 | 88 | 1021.9 |
| 20260903235804 | 62 | 263 | 0.0 | 0.0 | 0.00 | 0.00 | 0.00 | 87 | 1021.9 |
| 20260903235305 | 62 | 263 | 0.0 | 0.0 | 0.00 | 0.00 | 0.00 | 87 | 1021.9 |
| 20260903234304 | 62 | 263 | 0.0 | 0.0 | 0.00 | 0.00 | 0.00 | 86 | 1022.0 |
| 20260903233804 | 62 | 263 | 0.0 | 0.0 | 0.00 | 0.00 | 0.00 | 86 | 1022.0 |
| 20260903232804 | 63 | 263 | 0.0 | 0.0 | 0.00 | 0.00 | 0.00 | 85 | 1022.0 |
| 20260903232306 | 63 | 263 | 0.0 | 0.0 | 0.00 | 0.00 | 0.00 | 84 | 1022.0 |
| 20260903231804 | 63 | 263 | 0.0 | 0.0 | 0.00 | 0.00 | 0.00 | 84 | 1022.0 |
| 20260903231303 | 64 | 263 | 0.0 | 0.0 | 0.00 | 0.00 | 0.00 | 83 | 1021.7 |
| 20260903230803 | 64 | 263 | 0.0 | 0.0 | 0.00 | 0.00 | 0.00 | 82 | 1021.7 |
| 20260903225804 | 64 | 263 | 0.0 | 0.0 | 0.00 | 0.00 | 0.00 | 80 | 1021.7 |
| 20260903225306 | 64 | 263 | 0.0 | 0.0 | 0.00 | 0.00 | 0.00 | 81 | 1021.7 |
| 20260903224804 | 64 | 294 | 0.0 | 0.0 | 0.00 | 0.00 | 0.00 | 82 | 1021.7 |
| 20260903224303 | 64 | 298 | 0.0 | 0.0 | 0.00 | 0.00 | 0.00 | 82 | 1021.7 |
| 20260903223804 | 63 | 298 | 0.0 | 0.0 | 0.00 | 0.00 | 0.00 | 83 | 1021.7 |
| 20260903222803 | 63 | 298 | 0.0 | 0.0 | 0.00 | 0.00 | 0.00 | 84 | 1021.7 |
| 20260903222305 | 63 | 298 | 0.0 | 0.0 | 0.00 | 0.00 | 0.00 | 84 | 1021.7 |
| 20260903221804 | 63 | 298 | 0.0 | 0.0 | 0.00 | 0.00 | 0.00 | 83 | 1021.7 |
| 20260903221303 | 63 | 298 | 0.0 | 0.0 | 0.00 | 0.00 | 0.00 | 83 | 1021.7 |
| 20260903220810 | 63 | 298 | 0.0 | 0.0 | 0.00 | 0.00 | 0.00 | 84 | 1021.7 |
| 20260903220304 | 62 | 298 | 0.0 | 0.0 | 0.00 | 0.00 | 0.00 | 85 | 1021.7 |
| 20260903215803 | 62 | 298 | 0.0 | 0.0 | 0.00 | 0.00 | 0.00 | 85 | 1021.7 |
| 20260903215306 | 63 | 298 | 0.0 | 0.0 | 0.00 | 0.00 | 0.00 | 85 | 1021.7 |
| 20260903214804 | 63 | 298 | 0.0 | 0.0 | 0.00 | 0.00 | 0.00 | 85 | 1021.7 |
| 20260903214304 | 63 | 298 | 0.0 | 0.0 | 0.00 | 0.00 | 0.00 | 84 | 1021.7 |
| 20260903213804 | 63 | 298 | 0.0 | 0.0 | 0.00 | 0.00 | 0.00 | 83 | 1021.7 |
| 20260903213304 | 63 | 298 | 0.0 | 0.0 | 0.00 | 0.00 | 0.00 | 83 | 1021.7 |
| 20260903212306 | 63 | 298 | 0.0 | 0.0 | 0.00 | 0.00 | 0.00 | 84 | 1021.7 |
| 20260903211804 | 63 | 298 | 0.0 | 0.0 | 0.00 | 0.00 | 0.00 | 84 | 1021.7 |
| 20260903210804 | 64 | 298 | 0.0 | 0.0 | 0.00 | 0.00 | 0.00 | 84 | 1021.7 |
| 20260903205804 | 64 | 298 | 0.0 | 0.0 | 0.00 | 0.00 | 0.00 | 83 | 1021.7 |
| 20260903205306 | 64 | 298 | 0.0 | 0.0 | 0.00 | 0.00 | 0.00 | 83 | 1021.7 |
| 20260903204804 | 65 | 298 | 0.0 | 0.0 | 0.00 | 0.00 | 0.00 | 83 | 1021.7 |
| 20260903204303 | 65 | 298 | 0.0 | 0.0 | 0.00 | 0.00 | 0.00 | 82 | 1021.7 |
| 20260903203304 | 66 | 298 | 0.0 | 0.0 | 0.00 | 0.00 | 0.00 | 80 | 1021.7 |
| 20260903202803 | 66 | 298 | 0.0 | 0.0 | 0.00 | 0.00 | 0.00 | 79 | 1021.9 |
| 20260903202306 | 66 | 298 | 0.0 | 0.0 | 0.00 | 0.00 | 0.00 | 78 | 1021.9 |
| 20260903201803 | 66 | 298 | 0.0 | 0.0 | 0.00 | 0.00 | 0.00 | 79 | 1021.9 |
| 20260903201303 | 67 | 298 | 0.0 | 0.0 | 0.00 | 0.00 | 0.00 | 80 | 1021.9 |
| 20260903200803 | 67 | 298 | 0.0 | 0.0 | 0.00 | 0.00 | 0.00 | 79 | 1021.9 |
| 20260903200303 | 67 | 298 | 0.0 | 0.0 | 0.00 | 0.00 | 0.00 | 78 | 1021.9 |
| 20260903195306 | 67 | 298 | 0.0 | 0.0 | 0.00 | 0.00 | 0.00 | 79 | 1021.9 |
| 20260903194804 | 67 | 298 | 0.0 | 0.0 | 0.00 | 0.00 | 0.00 | 77 | 1021.9 |
| 20260903194304 | 66 | 298 | 0.0 | 0.0 | 0.00 | 0.00 | 0.00 | 78 | 1021.9 |
| 20260903193804 | 66 | 298 | 0.0 | 0.0 | 0.00 | 0.00 | 0.00 | 78 | 1021.9 |
| 20260903193304 | 66 | 298 | 0.0 | 0.0 | 0.00 | 0.00 | 0.00 | 78 | 1021.8 |
| 20260903191804 | 67 | 298 | 0.0 | 0.0 | 0.00 | 0.00 | 0.00 | 77 | 1021.6 |
| 20260903191305 | 67 | 298 | 0.0 | 0.0 | 0.00 | 0.00 | 0.00 | 76 | 1021.5 |
| 20260903190804 | 67 | 298 | 0.0 | 0.0 | 0.00 | 0.00 | 0.00 | 77 | 1021.5 |
| 20260903190303 | 67 | 298 | 0.0 | 0.0 | 0.00 | 0.00 | 0.00 | 77 | 1021.5 |
| 20260903185803 | 68 | 298 | 0.0 | 0.0 | 0.00 | 0.00 | 0.00 | 77 | 1021.5 |
| 20260903185306 | 68 | 298 | 0.0 | 0.0 | 0.00 | 0.00 | 0.00 | 77 | 1020.8 |
| 20260903184803 | 68 | 298 | 0.0 | 0.0 | 0.00 | 0.00 | 0.00 | 76 | 1020.8 |
| 20260903184303 | 68 | 298 | 0.0 | 0.0 | 0.00 | 0.00 | 0.00 | 75 | 1020.8 |
| 20260903183803 | 69 | 298 | 0.0 | 0.0 | 0.00 | 0.00 | 0.00 | 77 | 1020.8 |
| 20260903182803 | 70 | 298 | 0.0 | 0.0 | 0.00 | 0.00 | 0.00 | 73 | 1020.8 |
| 20260903181304 | 71 | 298 | 0.0 | 0.0 | 0.00 | 0.00 | 0.00 | 71 | 1020.8 |
| 20260903180804 | 72 | 298 | 0.0 | 0.0 | 0.00 | 0.00 | 0.00 | 70 | 1020.8 |
| 20260903180304 | 72 | 298 | 0.0 | 0.0 | 0.00 | 0.00 | 0.00 | 71 | 1020.8 |
| 20260903175803 | 72 | 298 | 0.0 | 0.0 | 0.00 | 0.00 | 0.00 | 70 | 1020.8 |
| 20260903174804 | 73 | 298 | 0.0 | 0.0 | 0.00 | 0.00 | 0.00 | 66 | 1020.8 |
| 20260903174303 | 73 | 298 | 0.0 | 0.0 | 0.00 | 0.00 | 0.00 | 67 | 1020.8 |
| 20260903173803 | 73 | 298 | 0.0 | 0.0 | 0.00 | 0.00 | 0.00 | 65 | 1020.8 |
| 20260903173303 | 74 | 298 | 0.0 | 0.0 | 0.00 | 0.00 | 0.00 | 65 | 1020.8 |
| 20260903172306 | 74 | 298 | 0.0 | 0.0 | 0.00 | 0.00 | 0.00 | 62 | 1020.8 |
| 20260903171803 | 74 | 298 | 0.0 | 0.0 | 0.00 | 0.00 | 0.00 | 63 | 1020.8 |
| 20260903171303 | 75 | 298 | 0.0 | 0.0 | 0.00 | 0.00 | 0.00 | 61 | 1020.7 |
| 20260903170804 | 75 | 298 | 0.0 | 0.0 | 0.00 | 0.00 | 0.00 | 57 | 1020.7 |
| 20260903170303 | 76 | 298 | 0.0 | 0.0 | 0.00 | 0.00 | 0.00 | 59 | 1020.7 |
| 20260903165804 | 76 | 298 | 0.0 | 0.0 | 0.00 | 0.00 | 0.00 | 58 | 1020.6 |
| 20260903165305 | 77 | 298 | 0.0 | 0.0 | 0.00 | 0.00 | 0.00 | 52 | 1020.7 |
| 20260903164804 | 77 | 298 | 0.0 | 0.0 | 0.00 | 0.00 | 0.00 | 51 | 1020.7 |
| 20260903164303 | 77 | 298 | 0.0 | 0.0 | 0.00 | 0.00 | 0.00 | 51 | 1020.7 |
| 20260903163804 | 78 | 266 | 0.0 | 0.0 | 0.00 | 0.00 | 0.00 | 52 | 1020.7 |
| 20260903162803 | 78 | 334 | 1.0 | 3.0 | 0.00 | 0.00 | 0.00 | 51 | 1020.7 |
| 20260903162306 | 78 | 283 | 0.0 | 3.0 | 0.00 | 0.00 | 0.00 | 50 | 1020.7 |
| 20260903161803 | 78 | 269 | 1.0 | 7.0 | 0.00 | 0.00 | 0.00 | 50 | 1020.7 |
| 20260903160304 | 79 | 264 | 1.0 | 5.0 | 0.00 | 0.00 | 0.00 | 49 | 1020.7 |
| 20260903155803 | 80 | 277 | 0.0 | 1.0 | 0.00 | 0.00 | 0.00 | 48 | 1020.7 |
| 20260903155306 | 80 | 270 | 0.0 | 1.0 | 0.00 | 0.00 | 0.00 | 47 | 1020.7 |
| 20260903154804 | 80 | 323 | 0.0 | 1.0 | 0.00 | 0.00 | 0.00 | 47 | 1020.8 |
| 20260903154304 | 80 | 270 | 0.0 | 3.0 | 0.00 | 0.00 | 0.00 | 47 | 1020.8 |
| 20260903153804 | 80 | 297 | 1.0 | 6.0 | 0.00 | 0.00 | 0.00 | 48 | 1020.9 |
| 20260903153303 | 81 | 317 | 1.0 | 5.0 | 0.00 | 0.00 | 0.00 | 47 | 1020.9 |
| 20260903152804 | 81 | 273 | 0.0 | 5.0 | 0.00 | 0.00 | 0.00 | 47 | 1020.9 |
| 20260903152306 | 82 | 285 | 1.0 | 5.0 | 0.00 | 0.00 | 0.00 | 46 | 1020.9 |
| 20260903151804 | 81 | 289 | 0.0 | 1.0 | 0.00 | 0.00 | 0.00 | 47 | 1020.9 |
| 20260903151304 | 81 | 297 | 0.0 | 5.0 | 0.00 | 0.00 | 0.00 | 48 | 1020.9 |
| 20260903150803 | 80 | 291 | 0.0 | 1.0 | 0.00 | 0.00 | 0.00 | 48 | 1021.1 |
| 20260903150304 | 80 | 315 | 1.0 | 5.0 | 0.00 | 0.00 | 0.00 | 48 | 1021.1 |
| 20260903145804 | 81 | 305 | 0.0 | 0.0 | 0.00 | 0.00 | 0.00 | 48 | 1021.0 |
| 20260903145306 | 81 | 308 | 0.0 | 1.0 | 0.00 | 0.00 | 0.00 | 49 | 1021.0 |
| 20260903144803 | 81 | 328 | 0.0 | 5.0 | 0.00 | 0.00 | 0.00 | 47 | 1021.0 |
| 20260903144304 | 81 | 282 | 1.0 | 3.0 | 0.00 | 0.00 | 0.00 | 46 | 1021.0 |
| 20260903143804 | 80 | 311 | 0.0 | 3.0 | 0.00 | 0.00 | 0.00 | 47 | 1021.0 |
| 20260903143303 | 81 | 316 | 0.0 | 7.0 | 0.00 | 0.00 | 0.00 | 47 | 1021.0 |
| 20260903142804 | 81 | 278 | 1.0 | 6.0 | 0.00 | 0.00 | 0.00 | 46 | 1021.0 |
| 20260903142306 | 82 | 282 | 1.0 | 5.0 | 0.00 | 0.00 | 0.00 | 45 | 1020.8 |
| 20260903141804 | 82 | 233 | 2.0 | 7.0 | 0.00 | 0.00 | 0.00 | 44 | 1020.9 |
| 20260903141303 | 81 | 319 | 0.0 | 5.0 | 0.00 | 0.00 | 0.00 | 47 | 1020.9 |
| 20260903140303 | 81 | 349 | 1.0 | 5.0 | 0.00 | 0.00 | 0.00 | 46 | 1021.0 |
| 20260903135803 | 82 | 290 | 2.0 | 6.0 | 0.00 | 0.00 | 0.00 | 44 | 1021.1 |
| 20260903135306 | 82 | 259 | 1.0 | 5.0 | 0.00 | 0.00 | 0.00 | 46 | 1021.1 |
| 20260903134804 | 82 | 144 | 2.0 | 7.0 | 0.00 | 0.00 | 0.00 | 46 | 1021.1 |
| 20260903134303 | 82 | 276 | 2.0 | 7.0 | 0.00 | 0.00 | 0.00 | 45 | 1021.1 |
| 20260903133804 | 82 | 298 | 0.0 | 3.0 | 0.00 | 0.00 | 0.00 | 45 | 1021.1 |
| 20260903133304 | 83 | 3 | 1.0 | 5.0 | 0.00 | 0.00 | 0.00 | 45 | 1021.1 |
| 20260903132803 | 83 | 267 | 0.0 | 3.0 | 0.00 | 0.00 | 0.00 | 44 | 1021.4 |
| 20260903132306 | 84 | 313 | 0.0 | 1.0 | 0.00 | 0.00 | 0.00 | 42 | 1021.4 |
| 20260903131803 | 84 | 339 | 0.0 | 3.0 | 0.00 | 0.00 | 0.00 | 46 | 1021.4 |
| 20260903131304 | 83 | 2 | 1.0 | 9.0 | 0.00 | 0.00 | 0.00 | 44 | 1021.4 |
| 20260903130804 | 82 | 324 | 1.0 | 5.0 | 0.00 | 0.00 | 0.00 | 48 | 1021.3 |
| 20260903130304 | 81 | 268 | 1.0 | 5.0 | 0.00 | 0.00 | 0.00 | 47 | 1021.3 |
| 20260903125305 | 80 | 266 | 0.0 | 6.0 | 0.00 | 0.00 | 0.00 | 49 | 1021.3 |
| 20260903124804 | 80 | 288 | 1.0 | 5.0 | 0.00 | 0.00 | 0.00 | 48 | 1021.4 |
| 20260903124304 | 80 | 275 | 0.0 | 0.0 | 0.00 | 0.00 | 0.00 | 48 | 1021.4 |